Location: Newark
(43.0000°N, 1.6781°W)
Time: 23:08:24
(UTC+00:00)

Vanguard 1 Rocket - Pass Details

Date: 26 April 2021
Orbit: 652 x 4224 km, 34.3° (Epoch: 10 May)

Event Time Altitude Azimuth Distance (km) Brightness Sun altitude
Rises 10:11:00 0° 220° (SW) 6,392 11.7 51.8°
Reaches altitude 10° 10:16:55 10° 210° (SSW) 4,687 11.3 52.6°
Maximum altitude 10:25:29 24° 163° (SSE) 2,673 10.8 53.7°
Drops below altitude 10° 10:31:02 10° 112° (ESE) 2,913 10.7 54.4°
Sets 10:33:42 0° 97° (E) 3,565 10.8 54.8°
